FW8061 Weather Reports


Display with metric or nautical units.
time (UTC)temp
F
wind
direction
speed
MPH
gust
MPH
rain 1hr
in
rain 24hr
in
rain mn
in
humidity
%
barometer
mb
20260503232023 54 300 2.0 6.0 0.00 0.00 0.00 35 1006.8
20260503231039 54 299 4.0 9.0 0.00 0.00 0.00 35 1006.8
20260503230038 54 245 1.0 4.0 0.00 0.00 0.00 35 1006.7
20260503225019 54 308 3.0 6.0 0.00 0.00 0.00 34 1006.8
20260503224018 54 313 4.0 8.0 0.00 0.00 0.00 34 1006.8
20260503223019 54 310 5.0 9.0 0.00 0.00 0.00 34 1006.8
20260503222019 54 298 4.0 8.0 0.00 0.00 0.00 35 1006.9
20260503221019 54 307 3.0 8.0 0.00 0.00 0.00 36 1006.8
20260503220020 54 314 4.0 9.0 0.00 0.00 0.00 36 1006.8
20260503215039 55 277 4.0 7.0 0.00 0.00 0.00 36 1006.8
20260503214017 54 292 3.0 8.0 0.00 0.00 0.00 37 1006.9
20260503213021 54 288 4.0 9.0 0.00 0.00 0.00 37 1007.0
20260503212041 54 300 3.0 10.0 0.00 0.00 0.00 37 1007.0
20260503211017 54 307 4.0 9.0 0.00 0.00 0.00 37 1006.9
20260503210021 54 313 5.0 9.0 0.00 0.00 0.00 37 1006.9
20260503205018 54 272 4.0 9.0 0.00 0.00 0.00 37 1007.0
20260503204021 54 279 4.0 9.0 0.00 0.00 0.00 37 1007.0
20260503203019 53 295 3.0 7.0 0.00 0.00 0.00 40 1007.1
20260503202019 53 302 4.0 12.0 0.00 0.00 0.00 38 1007.2
20260503201021 53 286 3.0 9.0 0.00 0.00 0.00 40 1007.3
20260503200022 53 314 5.0 13.0 0.00 0.00 0.00 39 1007.4
20260503195018 53 305 4.0 10.0 0.00 0.00 0.00 39 1007.4
20260503194018 53 299 2.0 9.0 0.00 0.00 0.00 39 1007.5
20260503193018 52 288 4.0 9.0 0.00 0.00 0.00 40 1007.7
20260503192020 52 294 4.0 7.0 0.00 0.00 0.00 41 1007.9
20260503191021 51 333 6.0 10.0 0.00 0.00 0.00 41 1008.1
20260503190019 51 327 5.0 10.0 0.00 0.00 0.00 42 1008.1
20260503185019 51 331 5.0 10.0 0.00 0.00 0.00 43 1008.2
20260503184020 52 317 5.0 9.0 0.00 0.00 0.00 43 1008.3
20260503183020 52 248 3.0 9.0 0.00 0.00 0.00 44 1008.5
20260503182041 50 326 5.0 10.0 0.00 0.00 0.00 45 1008.7
20260503181017 49 322 4.0 9.0 0.00 0.00 0.00 48 1008.8
20260503180021 49 323 4.0 7.0 0.00 0.00 0.00 49 1008.9
20260503175017 49 282 4.0 7.0 0.00 0.00 0.00 48 1008.9
20260503174020 50 305 3.0 9.0 0.00 0.00 0.00 49 1008.9
20260503173018 50 305 4.0 10.0 0.00 0.00 0.00 48 1009.0
20260503172018 50 286 4.0 11.0 0.00 0.00 0.00 47 1009.2
20260503171019 49 281 3.0 9.0 0.00 0.00 0.00 50 1009.3
20260503131039 44 20 1.0 3.0 0.00 0.00 0.00 64 1011.8
20260503081031 40 337 2.0 2.0 0.00 0.00 0.00 86 1011.4
20260503072053 41 337 2.0 3.0 0.00 0.00 0.00 82 1011.5
20260503071031 41 339 2.0 3.0 0.00 0.00 0.00 82 1011.6
20260503055032 41 300 2.0 3.0 0.00 0.00 0.00 80 1011.9
20260503054017 42 297 1.0 1.0 0.00 0.00 0.00 80 1011.9
20260503053019 42 346 2.0 2.0 0.00 0.00 0.00 79 1012.0
20260503052018 42 348 2.0 2.0 0.00 0.00 0.00 78 1012.1
20260503051019 42 324 1.0 2.0 0.00 0.00 0.00 77 1012.1
20260503050018 42 325 2.0 3.0 0.00 0.00 0.00 76 1012.1
20260503045019 41 309 1.0 2.0 0.00 0.00 0.00 79 1012.2
20260503044020 40 319 1.0 2.0 0.00 0.00 0.00 84 1012.2
20260503043018 40 262 1.0 1.0 0.00 0.00 0.00 83 1012.2
20260503042020 41 284 1.0 1.0 0.00 0.00 0.00 82 1012.3
20260503041019 41 246 0.0 1.0 0.00 0.00 0.00 81 1012.3
20260503040019 42 256 1.0 1.0 0.00 0.00 0.00 79 1012.4
20260503035019 43 232 1.0 1.0 0.00 0.00 0.00 77 1012.5
20260503034020 43 295 1.0 2.0 0.00 0.00 0.00 76 1012.5
20260503033041 43 328 1.0 2.0 0.00 0.00 0.00 76 1012.5
20260503032020 43 328 2.0 2.0 0.00 0.00 0.00 76 1012.5
20260503031020 44 316 1.0 2.0 0.00 0.00 0.00 76 1012.6
20260503030020 44 283 1.0 1.0 0.00 0.00 0.00 74 1012.6
20260503025020 44 263 1.0 2.0 0.00 0.00 0.00 75 1012.7
20260503024021 45 340 1.0 2.0 0.00 0.00 0.00 74 1012.7
20260503023058 45 346 2.0 3.0 0.00 0.00 0.00 73 1012.8
20260503022019 45 329 3.0 5.0 0.00 0.00 0.00 71 1012.7
20260503021019 46 325 3.0 5.0 0.00 0.00 0.00 71 1012.8
20260503020019 46 313 2.0 6.0 0.00 0.00 0.00 70 1012.8
20260503015019 46 319 3.0 7.0 0.00 0.00 0.00 69 1012.8
20260503014019 0 345 2.0 2.0 0.00 0.00 0.00
20260503013019 46 321 3.0 6.0 0.00 0.00 0.00 70 1012.7
20260503012019 0 300 3.0 4.0 0.00 0.00 0.00
20260503011040 47 308 2.0 3.0 0.00 0.00 0.00 70 1012.4
20260503010020 47 323 2.0 5.0 0.00 0.00 0.00 68 1012.3
20260503005020 47 323 3.0 5.0 0.00 0.00 0.00 67 1012.2
20260503004017 47 318 3.0 5.0 0.00 0.00 0.00 65 1012.2
20260503003020 47 293 3.0 4.0 0.00 0.00 0.00 64 1012.2
20260503002017 47 314 3.0 8.0 0.00 0.00 0.00 66 1012.1
20260503001046 47 298 3.0 5.0 0.00 0.00 0.00 66 1011.9
20260503000021 48 318 3.0 7.0 0.00 0.00 0.00 63 1011.9
20260502235018 48 317 2.0 4.0 0.00 0.00 0.00 63 1011.8
20260502234018 48 308 3.0 6.0 0.00 0.00 0.00 64 1011.8
20260502233022 48 234 2.0 4.0 0.00 0.00 0.00 68 1011.8